WetterOnline ( http://www.wetteronline.de )

Wetter aktuell Altmark

Aktuelles Wetter: Gardelegen (48m)

6-stündlich | Neueste Meldungen
Ortszeit Temperatur Wetter
Fr, 17.08. 2:00 14.9° C fast wolkenlos
Do, 16.08. 20:00 27.9° C leicht bewölkt
Do, 16.08. 14:00 27.7° C fast wolkenlos
Do, 16.08. 8:00 15.0° C fast wolkenlos
Do, 16.08. 2:00 12.3° C wolkenlos
Mi, 15.08. 20:00 22.6° C wolkenlos
Mi, 15.08. 14:00 22.6° C wolkig
Mi, 15.08. 8:00 15.3° C leicht bewölkt
Ortszeit Temperatur Wetter
Fr, 17.08. 3:00 14.0° C fast wolkenlos
Fr, 17.08. 2:50 14.0° C fast wolkenlos
Fr, 17.08. 2:40 13.9° C leicht bewölkt
Fr, 17.08. 2:30 14.5° C fast wolkenlos
Fr, 17.08. 2:20 14.5° C wolkenlos
Fr, 17.08. 2:10 14.4° C wolkenlos
Fr, 17.08. 2:00 14.9° C fast wolkenlos
Fr, 17.08. 1:30 15.2° C fast wolkenlos
Fr, 17.08. 1:00 15.5° C fast wolkenlos
Fr, 17.08. 0:30 16.1° C wolkenlos
Fr, 17.08. 0:00 16.4° C wolkenlos
Ortszeit Relative Feuchte Sichtweite
Fr, 17.08. 2:00 90% 19 km
Do, 16.08. 20:00 37% 65 km
Do, 16.08. 14:00 36% 29 km
Do, 16.08. 8:00 88% 20 km
Do, 16.08. 2:00 97% 7 km
Mi, 15.08. 20:00 57% 50 km
Mi, 15.08. 14:00 56% 30 km
Mi, 15.08. 8:00 89% 35 km
Ortszeit Relative Feuchte Sichtweite
Fr, 17.08. 3:00 92% 16 km
Fr, 17.08. 2:50 92% -
Fr, 17.08. 2:40 92% -
Fr, 17.08. 2:30 91% 19 km
Fr, 17.08. 2:20 91% -
Fr, 17.08. 2:10 91% -
Fr, 17.08. 2:00 90% 19 km
Fr, 17.08. 1:30 90% 24 km
Fr, 17.08. 1:00 89% 29 km
Fr, 17.08. 0:30 87% 28 km
Fr, 17.08. 0:00 89% 27 km
Ortszeit Niederschlagsmenge Niederschlagsart
Fr, 17.08. 2:00 0.0 l/m2 in 6 Std. -
Do, 16.08. 20:00 0.0 l/m2 in 12 Std. -
Do, 16.08. 14:00 0.1 l/m2 in 6 Std. Sprühregen
Do, 16.08. 8:00 0.0 l/m2 in 12 Std. -
Do, 16.08. 2:00 0.0 l/m2 in 6 Std. -
Mi, 15.08. 20:00 0.0 l/m2 in 12 Std. -
Mi, 15.08. 14:00 0.0 l/m2 in 6 Std. -
Mi, 15.08. 8:00 0.3 l/m2 in 12 Std. Niederschlag
Ortszeit Niederschlagsmenge Niederschlagsart
Fr, 17.08. 3:00 0.0 l/m2 in 1 Std. -
Fr, 17.08. 2:50 keine Meldung -
Fr, 17.08. 2:40 keine Meldung -
Fr, 17.08. 2:30 0.0 l/m2 in 1 Std. -
Fr, 17.08. 2:20 keine Meldung -
Fr, 17.08. 2:10 keine Meldung -
Fr, 17.08. 2:00 0.0 l/m2 in 1 Std. -
Fr, 17.08. 1:30 0.0 l/m2 in 1 Std. -
Fr, 17.08. 1:00 0.0 l/m2 in 1 Std. -
Fr, 17.08. 0:30 0.0 l/m2 in 1 Std. -
Fr, 17.08. 0:00 0.0 l/m2 in 1 Std. -
Ortszeit Stärke Spitze Richtung
km/h Bft. km/h Grad Sektor
Fr, 17.08. 2:00 0 0 11 - -
Do, 16.08. 20:00 4 1 32 120° SO
Do, 16.08. 14:00 18 3 36 190° S
Do, 16.08. 8:00 2 1 4 250° W
Do, 16.08. 2:00 2 1 6 270° W
Mi, 15.08. 20:00 4 1 25 270° W
Mi, 15.08. 14:00 11 2 29 280° W
Mi, 15.08. 8:00 4 1 18 210° SW
Ortszeit Stärke Spitze Richtung
km/h Bft. km/h Grad Sektor
Fr, 17.08. 3:00 4 1 4 200° S
Fr, 17.08. 2:50 4 1 - 200° S
Fr, 17.08. 2:40 4 1 - 210° SW
Fr, 17.08. 2:30 0 0 4 - -
Fr, 17.08. 2:20 0 0 - 110° O
Fr, 17.08. 2:10 0 0 - 220° SW
Fr, 17.08. 2:00 0 0 4 - -
Fr, 17.08. 1:30 0 0 4 - -
Fr, 17.08. 1:00 0 0 4 - -
Fr, 17.08. 0:30 0 0 4 - -
Fr, 17.08. 0:00 0 0 4 - -
Ortszeit Untergrenze Bedeckung Gattung
total tief tief mittel hoch
Fr, 17.08. 2:00 9000 m 1/8 0/8 - - -
Do, 16.08. 20:00 9000 m 3/8 0/8 - - -
Do, 16.08. 14:00 9000 m 1/8 0/8 - - -
Do, 16.08. 8:00 9000 m 1/8 0/8 - - -
Do, 16.08. 2:00 - 0/8 0/8 - - -
Mi, 15.08. 20:00 - 0/8 0/8 - - -
Mi, 15.08. 14:00 1500 m 6/8 6/8 - - -
Mi, 15.08. 8:00 3900 m 2/8 2/8 - - -
Ortszeit Bedeckungsgrad in Achtel und Wolkenuntergrenze
Fr, 17.08. 3:00 1(2100m)
Fr, 17.08. 2:50 1(2100m)
Fr, 17.08. 2:40 2(2100m)
Fr, 17.08. 2:30 2(2100m)
Fr, 17.08. 2:20 keine Wolken
Fr, 17.08. 2:10 keine Wolken
Fr, 17.08. 2:00 1(9000m)
Fr, 17.08. 1:30 2(9000m)
Fr, 17.08. 1:00 2(9000m)
Fr, 17.08. 0:30 keine Wolken
Fr, 17.08. 0:00 keine Wolken
Ortszeit Luftdruck NN (hPa) Tendenz (hPa in 3 Std.)
Fr, 17.08. 2:00 1014 - 0,2
Do, 16.08. 20:00 1013 - 0,9
Do, 16.08. 14:00 1016 - 1,7
Do, 16.08. 8:00 1019 - 0,3
Do, 16.08. 2:00 1020 - 0,1
Mi, 15.08. 20:00 1019 - 0,2
Mi, 15.08. 14:00 1019 - 0,1
Mi, 15.08. 8:00 1018 + 1,1
Ortszeit Luftdruck NN (hPa) Tendenz (hPa in 3 Std.)
Fr, 17.08. 3:00 1014 - 0,4
Fr, 17.08. 2:50 1014 keine Meldung
Fr, 17.08. 2:40 1014 keine Meldung
Fr, 17.08. 2:30 1014 - 0,4
Fr, 17.08. 2:20 1014 keine Meldung
Fr, 17.08. 2:10 1014 keine Meldung
Fr, 17.08. 2:00 1014 - 0,2
Fr, 17.08. 1:30 1014 - 0,1
Fr, 17.08. 1:00 1014 + 0,1
Fr, 17.08. 0:30 1014 + 0,2
Fr, 17.08. 0:00 1014 + 0,3
Ortszeit Schneehöhe (cm)
Fr, 17.08. 2:00 -
Do, 16.08. 20:00 -
Do, 16.08. 14:00 -
Do, 16.08. 8:00 -
Do, 16.08. 2:00 -
Mi, 15.08. 20:00 -
Mi, 15.08. 14:00 -
Mi, 15.08. 8:00 -
Ortszeit Schneehöhe (cm)
Fr, 17.08. 3:00 -
Fr, 17.08. 2:50 -
Fr, 17.08. 2:40 -
Fr, 17.08. 2:30 -
Fr, 17.08. 2:20 -
Fr, 17.08. 2:10 -
Fr, 17.08. 2:00 -
Fr, 17.08. 1:30 -
Fr, 17.08. 1:00 -
Fr, 17.08. 0:30 -
Fr, 17.08. 0:00 -
Link zu dieser Seite / Seite empfehlen

Das Wetter in ...